Private Wetterstation Sandau
Wetterdaten: Dienstag, 18.12.2012
Datum Zeit Temp. A. Feuchte A. Luftdruck Regen Wind Richtung Richtung Taupunkt Windchill
18.12.2012 00:01 2,2 C 95 % 1008,0 hPa 0,0 l/m 5,0 km/h (1 Bft) O-SO 112 1,5 C 0,9 C
18.12.2012 00:06 2,2 C 95 % 1007,9 hPa 0,0 l/m 4,7 km/h (1 Bft) O-SO 112 1,5 C 1,0 C
18.12.2012 00:11 2,2 C 95 % 1008,1 hPa 0,0 l/m 5,0 km/h (1 Bft) O-SO 112 1,5 C 0,9 C
18.12.2012 00:16 2,2 C 95 % 1008,1 hPa 0,0 l/m 4,3 km/h (1 Bft) O-SO 112 1,5 C 2,2 C
18.12.2012 00:21 2,2 C 95 % 1008,0 hPa 0,0 l/m 3,2 km/h (1 Bft) O-SO 112 1,5 C 2,2 C
18.12.2012 00:26 2,2 C 95 % 1008,0 hPa 0,0 l/m 2,5 km/h (1 Bft) O-SO 112 1,5 C 2,2 C
18.12.2012 00:31 2,1 C 95 % 1008,0 hPa 0,0 l/m 4,3 km/h (1 Bft) O-NO 67 1,4 C 2,1 C
18.12.2012 00:36 2,1 C 95 % 1008,0 hPa 0,0 l/m 5,0 km/h (1 Bft) O 90 1,4 C 0,8 C
18.12.2012 00:41 2,1 C 95 % 1008,0 hPa 0,0 l/m 6,1 km/h (2 Bft) O-SO 112 1,4 C 0,4 C
18.12.2012 00:46 2,0 C 95 % 1008,1 hPa 0,0 l/m 3,2 km/h (1 Bft) SO 135 1,3 C 2,0 C
18.12.2012 00:51 2,1 C 95 % 1008,1 hPa 0,0 l/m 4,0 km/h (1 Bft) O-SO 112 1,4 C 2,1 C
18.12.2012 00:56 1,9 C 95 % 1008,1 hPa 0,0 l/m 3,2 km/h (1 Bft) O-SO 112 1,2 C 1,9 C
18.12.2012 01:01 1,9 C 95 % 1008,1 hPa 0,0 l/m 2,2 km/h (1 Bft) O-SO 112 1,2 C 1,9 C
18.12.2012 01:06 1,9 C 95 % 1008,0 hPa 0,0 l/m 1,8 km/h (1 Bft) O-SO 112 1,2 C 1,9 C
18.12.2012 01:11 1,9 C 95 % 1008,1 hPa 0,0 l/m 3,2 km/h (1 Bft) O-SO 112 1,2 C 1,9 C
18.12.2012 01:16 1,9 C 95 % 1008,1 hPa 0,0 l/m 5,0 km/h (1 Bft) O-SO 112 1,2 C 0,6 C
18.12.2012 01:21 1,9 C 95 % 1008,1 hPa 0,0 l/m 3,2 km/h (1 Bft) O-SO 112 1,2 C 1,9 C
18.12.2012 01:26 1,9 C 95 % 1008,2 hPa 0,0 l/m 9,7 km/h (2 Bft) O-NO 67 1,2 C -1,0 C
18.12.2012 01:31 1,9 C 95 % 1008,1 hPa 0,0 l/m 3,2 km/h (1 Bft) O-SO 112 1,2 C 1,9 C
18.12.2012 01:36 1,9 C 95 % 1008,1 hPa 0,0 l/m 2,5 km/h (1 Bft) SO 135 1,2 C 1,9 C
18.12.2012 01:41 1,9 C 95 % 1008,1 hPa 0,0 l/m 3,2 km/h (1 Bft) O-SO 112 1,2 C 1,9 C
18.12.2012 01:46 1,9 C 95 % 1008,2 hPa 0,0 l/m 4,7 km/h (1 Bft) O-SO 112 1,2 C 0,7 C
18.12.2012 01:51 1,9 C 95 % 1008,1 hPa 0,0 l/m 2,5 km/h (1 Bft) O-SO 112 1,2 C 1,9 C
18.12.2012 01:56 1,9 C 95 % 1008,2 hPa 0,0 l/m 3,6 km/h (1 Bft) O-SO 112 1,2 C 1,9 C
18.12.2012 02:01 1,9 C 95 % 1008,3 hPa 0,0 l/m 6,8 km/h (2 Bft) O-SO 112 1,2 C -0,1 C
18.12.2012 02:06 1,9 C 95 % 1008,3 hPa 0,0 l/m 5,8 km/h (2 Bft) O-SO 112 1,2 C 0,2 C
18.12.2012 02:11 2,1 C 95 % 1008,4 hPa 0,0 l/m 2,2 km/h (1 Bft) O-SO 112 1,4 C 2,1 C
18.12.2012 02:16 2,1 C 95 % 1008,2 hPa 0,0 l/m 5,0 km/h (1 Bft) O-SO 112 1,4 C 0,8 C
18.12.2012 02:21 2,1 C 95 % 1008,2 hPa 0,0 l/m 5,4 km/h (1 Bft) O-SO 112 1,4 C 0,6 C
18.12.2012 02:26 2,1 C 95 % 1008,3 hPa 0,0 l/m 4,3 km/h (1 Bft) O-SO 112 1,4 C 2,1 C
18.12.2012 02:31 2,2 C 95 % 1008,4 hPa 0,0 l/m 4,0 km/h (1 Bft) O-SO 112 1,5 C 2,2 C
18.12.2012 02:36 2,2 C 95 % 1008,4 hPa 0,0 l/m 4,3 km/h (1 Bft) O-SO 112 1,5 C 2,2 C
18.12.2012 02:41 2,2 C 95 % 1008,5 hPa 0,0 l/m 3,2 km/h (1 Bft) O-SO 112 1,5 C 2,2 C
18.12.2012 02:46 2,2 C 95 % 1008,4 hPa 0,0 l/m 0,0 km/h (0 Bft) O-SO 112 1,5 C 2,2 C
18.12.2012 02:51 2,3 C 95 % 1008,4 hPa 0,0 l/m 2,2 km/h (1 Bft) O-SO 112 1,6 C 2,3 C
18.12.2012 02:56 2,3 C 95 % 1008,5 hPa 0,0 l/m 0,0 km/h (0 Bft) O-SO 112 1,6 C 2,3 C
18.12.2012 03:01 2,3 C 95 % 1008,4 hPa 0,0 l/m 3,6 km/h (1 Bft) O-SO 112 1,6 C 2,3 C
18.12.2012 03:06 2,4 C 95 % 1008,6 hPa 0,0 l/m 6,5 km/h (2 Bft) O-SO 112 1,7 C 0,6 C
18.12.2012 03:11 2,4 C 95 % 1008,4 hPa 0,0 l/m 4,3 km/h (1 Bft) SO 135 1,7 C 2,4 C
18.12.2012 03:16 2,4 C 95 % 1008,3 hPa 0,0 l/m 2,9 km/h (1 Bft) O-SO 112 1,7 C 2,4 C
18.12.2012 03:21 2,4 C 95 % 1008,5 hPa 0,0 l/m 5,0 km/h (1 Bft) SO 135 1,7 C 1,1 C
18.12.2012 03:26 2,4 C 95 % 1008,4 hPa 0,0 l/m 5,8 km/h (2 Bft) O-SO 112 1,7 C 0,8 C
18.12.2012 03:31 2,5 C 95 % 1008,5 hPa 0,0 l/m 6,5 km/h (2 Bft) O-SO 112 1,8 C 0,7 C
18.12.2012 03:36 2,5 C 95 % 1008,5 hPa 0,0 l/m 6,1 km/h (2 Bft) O-SO 112 1,8 C 0,8 C
18.12.2012 03:41 2,5 C 95 % 1008,5 hPa 0,0 l/m 2,5 km/h (1 Bft) SO 135 1,8 C 2,5 C
18.12.2012 03:46 2,5 C 95 % 1008,6 hPa 0,0 l/m 3,2 km/h (1 Bft) SO 135 1,8 C 2,5 C
18.12.2012 03:51 2,5 C 95 % 1008,7 hPa 0,0 l/m 3,6 km/h (1 Bft) S-SO 157 1,8 C 2,5 C
18.12.2012 03:56 2,6 C 95 % 1008,7 hPa 0,0 l/m 2,9 km/h (1 Bft) S-SO 157 1,9 C 2,6 C
18.12.2012 04:01 2,6 C 95 % 1008,7 hPa 0,0 l/m 0,0 km/h (0 Bft) SO 135 1,9 C 2,6 C
18.12.2012 04:06 2,5 C 95 % 1008,8 hPa 0,0 l/m 2,5 km/h (1 Bft) S-SO 157 1,8 C 2,5 C
18.12.2012 04:11 2,5 C 95 % 1008,7 hPa 0,0 l/m 0,0 km/h (0 Bft) SO 135 1,8 C 2,5 C
18.12.2012 04:16 2,4 C 95 % 1008,8 hPa 0,0 l/m 5,4 km/h (1 Bft) SO 135 1,7 C 1,0 C
18.12.2012 04:21 2,4 C 95 % 1008,9 hPa 0,0 l/m 3,6 km/h (1 Bft) SO 135 1,7 C 2,4 C
18.12.2012 04:26 2,4 C 95 % 1008,8 hPa 0,0 l/m 2,5 km/h (1 Bft) SO 135 1,7 C 2,4 C
18.12.2012 04:31 2,4 C 95 % 1008,8 hPa 0,0 l/m 1,1 km/h (1 Bft) SO 135 1,7 C 2,4 C
18.12.2012 04:36 2,4 C 95 % 1008,8 hPa 0,0 l/m 3,2 km/h (1 Bft) SO 135 1,7 C 2,4 C
18.12.2012 04:41 2,4 C 95 % 1008,8 hPa 0,0 l/m 3,6 km/h (1 Bft) SO 135 1,7 C 2,4 C
18.12.2012 04:46 2,4 C 95 % 1008,9 hPa 0,0 l/m 7,2 km/h (2 Bft) SO 135 1,7 C 0,3 C
18.12.2012 04:51 2,4 C 95 % 1008,9 hPa 0,0 l/m 5,8 km/h (2 Bft) SO 135 1,7 C 0,8 C
18.12.2012 04:56 2,4 C 95 % 1008,8 hPa 0,0 l/m 6,1 km/h (2 Bft) SO 135 1,7 C 0,7 C
18.12.2012 05:01 2,4 C 95 % 1009,0 hPa 0,0 l/m 5,4 km/h (1 Bft) SO 135 1,7 C 1,0 C
18.12.2012 05:06 2,4 C 95 % 1008,9 hPa 0,0 l/m 2,5 km/h (1 Bft) SO 135 1,7 C 2,4 C
18.12.2012 05:11 2,4 C 95 % 1008,8 hPa 0,0 l/m 4,7 km/h (1 Bft) O-SO 112 1,7 C 1,3 C
18.12.2012 05:16 2,4 C 95 % 1009,0 hPa 0,0 l/m 6,1 km/h (2 Bft) O-SO 112 1,7 C 0,7 C
18.12.2012 05:21 2,4 C 95 % 1008,9 hPa 0,0 l/m 1,8 km/h (1 Bft) O-SO 112 1,7 C 2,4 C
18.12.2012 05:26 2,4 C 95 % 1009,0 hPa 0,0 l/m 0,0 km/h (0 Bft) SO 135 1,7 C 2,4 C
18.12.2012 05:31 2,4 C 95 % 1008,9 hPa 0,0 l/m 0,0 km/h (0 Bft) SO 135 1,7 C 2,4 C
18.12.2012 05:36 2,4 C 95 % 1009,1 hPa 0,0 l/m 2,5 km/h (1 Bft) SO 135 1,7 C 2,4 C
18.12.2012 05:41 2,4 C 95 % 1009,1 hPa 0,0 l/m 3,6 km/h (1 Bft) SO 135 1,7 C 2,4 C
18.12.2012 05:46 2,4 C 95 % 1009,1 hPa 0,0 l/m 0,0 km/h (0 Bft) SO 135 1,7 C 2,4 C
18.12.2012 05:51 2,4 C 95 % 1009,2 hPa 0,0 l/m 2,9 km/h (1 Bft) SO 135 1,7 C 2,4 C
18.12.2012 05:56 2,4 C 95 % 1009,2 hPa 0,0 l/m 4,7 km/h (1 Bft) SO 135 1,7 C 1,3 C
18.12.2012 06:01 2,4 C 95 % 1009,2 hPa 0,0 l/m 2,2 km/h (1 Bft) SO 135 1,7 C 2,4 C
18.12.2012 06:06 2,4 C 95 % 1009,3 hPa 0,0 l/m 3,6 km/h (1 Bft) SO 135 1,7 C 2,4 C
18.12.2012 06:11 2,4 C 95 % 1009,3 hPa 0,0 l/m 4,0 km/h (1 Bft) O-SO 112 1,7 C 2,4 C
18.12.2012 06:16 2,3 C 95 % 1009,4 hPa 0,0 l/m 3,2 km/h (1 Bft) O-SO 112 1,6 C 2,3 C
18.12.2012 06:21 2,3 C 95 % 1009,5 hPa 0,0 l/m 3,2 km/h (1 Bft) O-SO 112 1,6 C 2,3 C
18.12.2012 06:26 2,3 C 95 % 1009,4 hPa 0,0 l/m 4,0 km/h (1 Bft) O-SO 112 1,6 C 2,3 C
18.12.2012 06:31 2,3 C 95 % 1009,4 hPa 0,0 l/m 1,4 km/h (1 Bft) O-SO 112 1,6 C 2,3 C
18.12.2012 06:36 2,3 C 95 % 1009,5 hPa 0,0 l/m 2,5 km/h (1 Bft) O-SO 112 1,6 C 2,3 C
18.12.2012 06:41 2,3 C 95 % 1009,6 hPa 0,0 l/m 3,2 km/h (1 Bft) SO 135 1,6 C 2,3 C
18.12.2012 06:46 2,3 C 96 % 1009,8 hPa 0,0 l/m 2,2 km/h (1 Bft) O-SO 112 1,7 C 2,3 C
18.12.2012 06:51 2,3 C 96 % 1009,8 hPa 0,0 l/m 2,5 km/h (1 Bft) O-SO 112 1,7 C 2,3 C
18.12.2012 06:56 2,2 C 95 % 1009,7 hPa 0,0 l/m 4,0 km/h (1 Bft) O-SO 112 1,5 C 2,2 C
18.12.2012 07:01 2,2 C 96 % 1009,7 hPa 0,0 l/m 2,5 km/h (1 Bft) O-SO 112 1,6 C 2,2 C
18.12.2012 07:06 2,2 C 96 % 1009,8 hPa 0,0 l/m 0,0 km/h (0 Bft) O-SO 112 1,6 C 2,2 C
18.12.2012 07:11 2,2 C 96 % 1009,9 hPa 0,0 l/m 2,5 km/h (1 Bft) O-SO 112 1,6 C 2,2 C
18.12.2012 07:16 2,2 C 96 % 1010,1 hPa 0,0 l/m 0,0 km/h (0 Bft) O-SO 112 1,6 C 2,2 C
18.12.2012 07:21 2,1 C 96 % 1010,1 hPa 0,0 l/m 0,0 km/h (0 Bft) O-SO 112 1,5 C 2,1 C
18.12.2012 07:26 2,1 C 96 % 1010,2 hPa 0,0 l/m 0,0 km/h (0 Bft) O-SO 112 1,5 C 2,1 C
18.12.2012 07:31 2,1 C 95 % 1010,3 hPa 0,0 l/m 0,0 km/h (0 Bft) O-SO 112 1,4 C 2,1 C
18.12.2012 07:36 2,1 C 95 % 1010,3 hPa 0,0 l/m 1,4 km/h (1 Bft) O-SO 112 1,4 C 2,1 C
18.12.2012 07:41 2,1 C 95 % 1010,2 hPa 0,0 l/m 0,0 km/h (0 Bft) O-SO 112 1,4 C 2,1 C
18.12.2012 07:46 2,1 C 95 % 1010,2 hPa 0,0 l/m 5,0 km/h (1 Bft) O-SO 112 1,4 C 0,8 C
18.12.2012 07:51 2,2 C 96 % 1010,3 hPa 0,0 l/m 2,5 km/h (1 Bft) O-SO 112 1,6 C 2,2 C
18.12.2012 07:56 2,2 C 95 % 1010,5 hPa 0,0 l/m 2,5 km/h (1 Bft) O-SO 112 1,5 C 2,2 C
18.12.2012 08:01 2,2 C 95 % 1010,6 hPa 0,0 l/m 3,2 km/h (1 Bft) O-SO 112 1,5 C 2,2 C
18.12.2012 08:06 2,2 C 95 % 1010,5 hPa 0,0 l/m 4,3 km/h (1 Bft) O-SO 112 1,5 C 2,2 C
18.12.2012 08:11 2,2 C 95 % 1010,7 hPa 0,0 l/m 4,7 km/h (1 Bft) O-SO 112 1,5 C 1,0 C
18.12.2012 08:16 2,2 C 95 % 1010,8 hPa 0,0 l/m 3,6 km/h (1 Bft) O-SO 112 1,5 C 2,2 C
18.12.2012 08:21 2,2 C 95 % 1010,7 hPa 0,0 l/m 2,2 km/h (1 Bft) O-SO 112 1,5 C 2,2 C
18.12.2012 08:26 2,2 C 96 % 1010,9 hPa 0,0 l/m 2,5 km/h (1 Bft) O-SO 112 1,6 C 2,2 C
18.12.2012 08:31 2,1 C 96 % 1011,0 hPa 0,0 l/m 1,1 km/h (1 Bft) O-SO 112 1,5 C 2,1 C
18.12.2012 08:36 2,2 C 96 % 1011,0 hPa 0,0 l/m 1,4 km/h (1 Bft) O-SO 112 1,6 C 2,2 C
18.12.2012 08:41 2,2 C 96 % 1011,1 hPa 0,0 l/m 2,2 km/h (1 Bft) O-SO 112 1,6 C 2,2 C
18.12.2012 08:46 2,2 C 96 % 1011,1 hPa 0,0 l/m 4,3 km/h (1 Bft) O-SO 112 1,6 C 2,2 C
18.12.2012 08:51 2,2 C 96 % 1011,2 hPa 0,0 l/m 0,0 km/h (0 Bft) O-SO 112 1,6 C 2,2 C
18.12.2012 08:56 2,2 C 96 % 1011,1 hPa 0,0 l/m 2,9 km/h (1 Bft) O-SO 112 1,6 C 2,2 C
18.12.2012 09:01 2,2 C 96 % 1011,3 hPa 0,0 l/m 2,2 km/h (1 Bft) O-SO 112 1,6 C 2,2 C
18.12.2012 09:06 2,2 C 96 % 1011,4 hPa 0,0 l/m 0,0 km/h (0 Bft) O-SO 112 1,6 C 2,2 C
18.12.2012 09:11 2,2 C 96 % 1011,5 hPa 0,0 l/m 2,9 km/h (1 Bft) O-SO 112 1,6 C 2,2 C
18.12.2012 09:16 2,2 C 96 % 1011,6 hPa 0,0 l/m 1,4 km/h (1 Bft) O-SO 112 1,6 C 2,2 C
18.12.2012 09:21 2,2 C 96 % 1011,3 hPa 0,0 l/m 5,0 km/h (1 Bft) O-SO 112 1,6 C 0,9 C
18.12.2012 09:26 2,2 C 96 % 1011,4 hPa 0,0 l/m 3,2 km/h (1 Bft) O-SO 112 1,6 C 2,2 C
18.12.2012 09:31 2,2 C 96 % 1011,6 hPa 0,0 l/m 2,2 km/h (1 Bft) O-SO 112 1,6 C 2,2 C
18.12.2012 09:36 2,2 C 96 % 1011,8 hPa 0,0 l/m 6,1 km/h (2 Bft) O-SO 112 1,6 C 0,5 C
18.12.2012 09:41 2,3 C 96 % 1011,7 hPa 0,0 l/m 2,5 km/h (1 Bft) O-SO 112 1,7 C 2,3 C
18.12.2012 09:46 2,2 C 96 % 1011,8 hPa 0,0 l/m 3,2 km/h (1 Bft) O-SO 112 1,6 C 2,2 C
18.12.2012 09:51 2,2 C 96 % 1011,8 hPa 0,0 l/m 5,4 km/h (1 Bft) O-SO 112 1,6 C 0,7 C
18.12.2012 09:56 2,3 C 96 % 1011,9 hPa 0,0 l/m 2,5 km/h (1 Bft) O-SO 112 1,7 C 2,3 C
18.12.2012 10:01 2,3 C 96 % 1011,9 hPa 0,0 l/m 5,0 km/h (1 Bft) O-SO 112 1,7 C 1,0 C
18.12.2012 10:06 2,3 C 96 % 1012,2 hPa 0,0 l/m 6,5 km/h (2 Bft) O-SO 112 1,7 C 0,4 C
18.12.2012 10:11 2,3 C 96 % 1012,3 hPa 0,0 l/m 4,0 km/h (1 Bft) O-SO 112 1,7 C 2,3 C
18.12.2012 10:16 2,3 C 96 % 1012,2 hPa 0,0 l/m 4,7 km/h (1 Bft) O-SO 112 1,7 C 1,2 C
18.12.2012 10:21 2,3 C 96 % 1012,1 hPa 0,0 l/m 6,1 km/h (2 Bft) O-SO 112 1,7 C 0,6 C
18.12.2012 10:26 2,3 C 96 % 1012,2 hPa 0,0 l/m 3,2 km/h (1 Bft) O-SO 112 1,7 C 2,3 C
18.12.2012 10:31 2,4 C 96 % 1012,2 hPa 0,0 l/m 4,0 km/h (1 Bft) O-SO 112 1,8 C 2,4 C
18.12.2012 10:36 2,4 C 96 % 1012,2 hPa 0,0 l/m 3,6 km/h (1 Bft) O-SO 112 1,8 C 2,4 C
18.12.2012 10:41 2,4 C 96 % 1012,2 hPa 0,0 l/m 4,0 km/h (1 Bft) O-SO 112 1,8 C 2,4 C
18.12.2012 10:46 2,4 C 96 % 1012,3 hPa 0,0 l/m 5,4 km/h (1 Bft) O-SO 112 1,8 C 1,0 C
18.12.2012 10:51 2,5 C 96 % 1012,3 hPa 0,0 l/m 5,0 km/h (1 Bft) O-SO 112 1,9 C 1,2 C
18.12.2012 10:56 2,5 C 96 % 1012,4 hPa 0,0 l/m 0,0 km/h (0 Bft) O-SO 112 1,9 C 2,5 C
18.12.2012 11:01 2,5 C 96 % 1012,5 hPa 0,0 l/m 7,9 km/h (2 Bft) O-SO 112 1,9 C 0,2 C
18.12.2012 11:06 2,6 C 96 % 1012,6 hPa 0,0 l/m 6,1 km/h (2 Bft) O-SO 112 2,0 C 0,9 C
18.12.2012 11:11 2,6 C 96 % 1012,6 hPa 0,0 l/m 0,0 km/h (0 Bft) O-SO 112 2,0 C 2,6 C
18.12.2012 11:16 2,7 C 96 % 1012,6 hPa 0,0 l/m 3,6 km/h (1 Bft) O-SO 112 2,1 C 2,7 C
18.12.2012 11:21 2,8 C 96 % 1012,7 hPa 0,0 l/m 2,2 km/h (1 Bft) O-SO 112 2,2 C 2,8 C
18.12.2012 11:26 2,8 C 95 % 1012,7 hPa 0,0 l/m 3,2 km/h (1 Bft) O-NO 67 2,1 C 2,8 C
18.12.2012 11:31 2,8 C 96 % 1012,7 hPa 0,0 l/m 1,4 km/h (1 Bft) O-NO 67 2,2 C 2,8 C
18.12.2012 11:36 2,8 C 96 % 1012,7 hPa 0,0 l/m 4,7 km/h (1 Bft) O-SO 112 2,2 C 1,7 C
18.12.2012 11:41 2,8 C 95 % 1012,7 hPa 0,0 l/m 4,0 km/h (1 Bft) O-SO 112 2,1 C 2,8 C
18.12.2012 11:46 2,8 C 95 % 1012,7 hPa 0,0 l/m 5,0 km/h (1 Bft) O-SO 112 2,1 C 1,6 C
18.12.2012 11:51 2,8 C 95 % 1012,7 hPa 0,0 l/m 0,0 km/h (0 Bft) O-SO 112 2,1 C 2,8 C
18.12.2012 11:56 2,8 C 96 % 1012,8 hPa 0,0 l/m 1,4 km/h (1 Bft) O-SO 112 2,2 C 2,8 C
18.12.2012 12:01 2,8 C 96 % 1012,8 hPa 0,0 l/m 3,2 km/h (1 Bft) O-SO 112 2,2 C 2,8 C
18.12.2012 12:06 2,8 C 96 % 1012,8 hPa 0,0 l/m 3,2 km/h (1 Bft) NO 45 2,2 C 2,8 C
18.12.2012 12:11 2,8 C 96 % 1012,9 hPa 0,0 l/m 2,5 km/h (1 Bft) NO 45 2,2 C 2,8 C
18.12.2012 12:16 2,8 C 95 % 1012,8 hPa 0,0 l/m 2,9 km/h (1 Bft) NO 45 2,1 C 2,8 C
18.12.2012 12:21 2,8 C 96 % 1012,8 hPa 0,0 l/m 0,0 km/h (0 Bft) NO 45 2,2 C 2,8 C
18.12.2012 12:26 2,8 C 96 % 1012,9 hPa 0,0 l/m 3,2 km/h (1 Bft) NO 45 2,2 C 2,8 C
18.12.2012 12:31 2,8 C 95 % 1013,1 hPa 0,0 l/m 0,0 km/h (0 Bft) O-NO 67 2,1 C 2,8 C
18.12.2012 12:36 2,8 C 96 % 1013,1 hPa 0,0 l/m 1,8 km/h (1 Bft) O-SO 112 2,2 C 2,8 C
18.12.2012 12:41 2,8 C 95 % 1013,1 hPa 0,0 l/m 2,9 km/h (1 Bft) O-SO 112 2,1 C 2,8 C
18.12.2012 12:46 2,8 C 95 % 1013,1 hPa 0,0 l/m 0,0 km/h (0 Bft) O-SO 112 2,1 C 2,8 C
18.12.2012 12:51 2,9 C 95 % 1013,2 hPa 0,0 l/m 1,1 km/h (1 Bft) O-SO 112 2,2 C 2,9 C
18.12.2012 12:56 2,9 C 95 % 1013,2 hPa 0,0 l/m 0,0 km/h (0 Bft) O-SO 112 2,2 C 2,9 C
18.12.2012 13:01 2,9 C 95 % 1013,2 hPa 0,0 l/m 0,0 km/h (0 Bft) O-SO 112 2,2 C 2,9 C
18.12.2012 13:06 2,9 C 95 % 1013,3 hPa 0,0 l/m 0,0 km/h (0 Bft) O-SO 112 2,2 C 2,9 C
18.12.2012 13:11 3,0 C 95 % 1013,2 hPa 0,0 l/m 1,4 km/h (1 Bft) O-SO 112 2,3 C 3,0 C
18.12.2012 13:16 3,0 C 95 % 1013,2 hPa 0,0 l/m 2,2 km/h (1 Bft) O 90 2,3 C 3,0 C
18.12.2012 13:21 2,9 C 95 % 1013,4 hPa 0,0 l/m 0,0 km/h (0 Bft) O-NO 67 2,2 C 2,9 C
18.12.2012 13:26 2,9 C 95 % 1013,4 hPa 0,0 l/m 0,0 km/h (0 Bft) O-NO 67 2,2 C 2,9 C
18.12.2012 13:31 3,0 C 95 % 1013,4 hPa 0,0 l/m 0,0 km/h (0 Bft) O-NO 67 2,3 C 3,0 C
18.12.2012 13:36 3,1 C 95 % 1013,5 hPa 0,0 l/m 0,0 km/h (0 Bft) O-NO 67 2,4 C 3,1 C
18.12.2012 13:41 3,1 C 95 % 1013,5 hPa 0,0 l/m 0,0 km/h (0 Bft) O-NO 67 2,4 C 3,1 C
18.12.2012 13:46 3,1 C 95 % 1013,5 hPa 0,0 l/m 0,0 km/h (0 Bft) O-NO 67 2,4 C 3,1 C
18.12.2012 13:51 3,1 C 95 % 1013,6 hPa 0,0 l/m 0,0 km/h (0 Bft) O-NO 67 2,4 C 3,1 C
18.12.2012 13:56 3,2 C 95 % 1013,6 hPa 0,0 l/m 0,0 km/h (0 Bft) O-NO 67 2,5 C 3,2 C
18.12.2012 14:01 3,2 C 95 % 1013,7 hPa 0,0 l/m 1,4 km/h (1 Bft) O-NO 67 2,5 C 3,2 C
18.12.2012 14:06 3,2 C 95 % 1013,8 hPa 0,0 l/m 0,0 km/h (0 Bft) O-NO 67 2,5 C 3,2 C
18.12.2012 14:11 3,3 C 95 % 1013,8 hPa 0,0 l/m 1,8 km/h (1 Bft) O-NO 67 2,6 C 3,3 C
18.12.2012 14:16 3,3 C 95 % 1013,8 hPa 0,0 l/m 1,1 km/h (1 Bft) O-NO 67 2,6 C 3,3 C
18.12.2012 14:21 3,4 C 95 % 1013,8 hPa 0,0 l/m 0,0 km/h (0 Bft) O-NO 67 2,7 C 3,4 C
18.12.2012 14:26 3,4 C 95 % 1013,8 hPa 0,0 l/m 0,0 km/h (0 Bft) O-NO 67 2,7 C 3,4 C
18.12.2012 14:31 3,4 C 95 % 1013,9 hPa 0,0 l/m 0,0 km/h (0 Bft) O-NO 67 2,7 C 3,4 C
18.12.2012 14:36 3,4 C 95 % 1013,9 hPa 0,0 l/m 1,8 km/h (1 Bft) O-NO 67 2,7 C 3,4 C
18.12.2012 14:41 3,3 C 95 % 1013,8 hPa 0,0 l/m 0,0 km/h (0 Bft) O-NO 67 2,6 C 3,3 C
18.12.2012 14:46 3,3 C 95 % 1014,0 hPa 0,0 l/m 4,7 km/h (1 Bft) NO 45 2,6 C 2,3 C
18.12.2012 14:51 3,3 C 95 % 1013,9 hPa 0,0 l/m 4,3 km/h (1 Bft) NO 45 2,6 C 3,3 C
18.12.2012 14:56 3,3 C 95 % 1014,1 hPa 0,0 l/m 0,0 km/h (0 Bft) NO 45 2,6 C 3,3 C
18.12.2012 15:01 3,3 C 95 % 1014,1 hPa 0,0 l/m 1,8 km/h (1 Bft) NO 45 2,6 C 3,3 C
18.12.2012 15:06 3,2 C 95 % 1014,2 hPa 0,0 l/m 0,0 km/h (0 Bft) NO 45 2,5 C 3,2 C
18.12.2012 15:11 3,2 C 95 % 1014,2 hPa 0,0 l/m 0,0 km/h (0 Bft) NO 45 2,5 C 3,2 C
18.12.2012 15:16 3,2 C 95 % 1014,4 hPa 0,0 l/m 2,5 km/h (1 Bft) O-NO 67 2,5 C 3,2 C
18.12.2012 15:21 3,2 C 95 % 1014,5 hPa 0,0 l/m 0,0 km/h (0 Bft) O-NO 67 2,5 C 3,2 C
18.12.2012 15:26 3,1 C 95 % 1014,5 hPa 0,0 l/m 2,5 km/h (1 Bft) O-NO 67 2,4 C 3,1 C
18.12.2012 15:31 3,2 C 95 % 1014,6 hPa 0,0 l/m 2,9 km/h (1 Bft) O-NO 67 2,5 C 3,2 C
18.12.2012 15:36 3,1 C 95 % 1014,6 hPa 0,0 l/m 1,8 km/h (1 Bft) O-NO 67 2,4 C 3,1 C
18.12.2012 15:41 3,1 C 95 % 1014,8 hPa 0,0 l/m 2,9 km/h (1 Bft) O-NO 67 2,4 C 3,1 C
18.12.2012 15:46 3,0 C 95 % 1014,9 hPa 0,0 l/m 3,2 km/h (1 Bft) O-NO 67 2,3 C 3,0 C
18.12.2012 15:51 2,9 C 95 % 1014,9 hPa 0,0 l/m 1,8 km/h (1 Bft) O-NO 67 2,2 C 2,9 C
18.12.2012 15:56 2,9 C 95 % 1015,0 hPa 0,0 l/m 0,0 km/h (0 Bft) O-NO 67 2,2 C 2,9 C
18.12.2012 16:01 2,9 C 95 % 1015,1 hPa 0,0 l/m 0,0 km/h (0 Bft) O-NO 67 2,2 C 2,9 C
18.12.2012 16:06 2,9 C 95 % 1015,1 hPa 0,5 l/m 2,2 km/h (1 Bft) O-NO 67 2,2 C 2,9 C
18.12.2012 16:11 2,8 C 95 % 1015,3 hPa 0,0 l/m 0,0 km/h (0 Bft) O-NO 67 2,1 C 2,8 C
18.12.2012 16:16 2,8 C 95 % 1015,4 hPa 0,0 l/m 2,5 km/h (1 Bft) O-NO 67 2,1 C 2,8 C
18.12.2012 16:21 2,8 C 95 % 1015,5 hPa 0,0 l/m 1,1 km/h (1 Bft) O-NO 67 2,1 C 2,8 C
18.12.2012 16:26 2,8 C 95 % 1015,6 hPa 0,0 l/m 2,2 km/h (1 Bft) O-NO 67 2,1 C 2,8 C
18.12.2012 16:31 2,8 C 94 % 1015,6 hPa 0,0 l/m 2,2 km/h (1 Bft) O-NO 67 1,9 C 2,8 C
18.12.2012 16:36 2,7 C 95 % 1015,7 hPa 0,0 l/m 0,0 km/h (0 Bft) O-NO 67 2,0 C 2,7 C
18.12.2012 16:41 2,7 C 95 % 1015,7 hPa 0,0 l/m 0,0 km/h (0 Bft) O-NO 67 2,0 C 2,7 C
18.12.2012 16:46 2,7 C 94 % 1015,8 hPa 0,0 l/m 2,2 km/h (1 Bft) O-NO 67 1,8 C 2,7 C
18.12.2012 16:51 2,7 C 94 % 1015,7 hPa 0,0 l/m 2,5 km/h (1 Bft) O-NO 67 1,8 C 2,7 C
18.12.2012 16:56 2,6 C 94 % 1016,0 hPa 0,0 l/m 0,0 km/h (0 Bft) O-NO 67 1,7 C 2,6 C
18.12.2012 17:01 2,6 C 94 % 1015,9 hPa 0,0 l/m 2,2 km/h (1 Bft) O-NO 67 1,7 C 2,6 C
18.12.2012 17:06 2,6 C 94 % 1016,1 hPa 0,0 l/m 1,8 km/h (1 Bft) O-NO 67 1,7 C 2,6 C
18.12.2012 17:11 2,6 C 94 % 1016,0 hPa 0,0 l/m 2,5 km/h (1 Bft) O-NO 67 1,7 C 2,6 C
18.12.2012 17:16 2,6 C 94 % 1016,1 hPa 0,0 l/m 1,4 km/h (1 Bft) O-NO 67 1,7 C 2,6 C
18.12.2012 17:21 2,6 C 94 % 1016,1 hPa 0,0 l/m 0,0 km/h (0 Bft) O-NO 67 1,7 C 2,6 C
18.12.2012 17:26 2,6 C 94 % 1016,1 hPa 0,0 l/m 0,0 km/h (0 Bft) O-NO 67 1,7 C 2,6 C
18.12.2012 17:31 2,6 C 94 % 1016,2 hPa 0,0 l/m 0,0 km/h (0 Bft) O-NO 67 1,7 C 2,6 C
18.12.2012 17:36 2,6 C 94 % 1016,3 hPa 0,0 l/m 0,0 km/h (0 Bft) O-NO 67 1,7 C 2,6 C
18.12.2012 17:41 2,6 C 94 % 1016,3 hPa 0,0 l/m 0,0 km/h (0 Bft) O-NO 67 1,7 C 2,6 C
18.12.2012 17:46 2,6 C 94 % 1016,4 hPa 0,0 l/m 0,0 km/h (0 Bft) O-NO 67 1,7 C 2,6 C
18.12.2012 17:51 2,6 C 94 % 1016,4 hPa 0,0 l/m 0,0 km/h (0 Bft) O-NO 67 1,7 C 2,6 C
18.12.2012 17:56 2,6 C 94 % 1016,4 hPa 0,0 l/m 0,0 km/h (0 Bft) O-NO 67 1,7 C 2,6 C
18.12.2012 18:01 2,6 C 94 % 1016,6 hPa 0,0 l/m 0,0 km/h (0 Bft) O-NO 67 1,7 C 2,6 C
18.12.2012 18:06 2,6 C 94 % 1016,5 hPa 0,0 l/m 0,0 km/h (0 Bft) O-NO 67 1,7 C 2,6 C
18.12.2012 18:11 2,6 C 94 % 1016,5 hPa 0,0 l/m 0,0 km/h (0 Bft) O-NO 67 1,7 C 2,6 C
18.12.2012 18:16 2,6 C 94 % 1016,6 hPa 0,0 l/m 0,0 km/h (0 Bft) O-NO 67 1,7 C 2,6 C
18.12.2012 18:21 2,6 C 94 % 1016,7 hPa 0,5 l/m 1,1 km/h (1 Bft) O-NO 67 1,7 C 2,6 C
18.12.2012 18:26 2,6 C 94 % 1016,7 hPa 0,0 l/m 0,0 km/h (0 Bft) O-NO 67 1,7 C 2,6 C
18.12.2012 18:31 2,6 C 94 % 1016,7 hPa 0,0 l/m 1,4 km/h (1 Bft) O-NO 67 1,7 C 2,6 C
18.12.2012 18:36 2,6 C 94 % 1016,8 hPa 0,0 l/m 0,0 km/h (0 Bft) O-NO 67 1,7 C 2,6 C
18.12.2012 18:41 2,6 C 94 % 1016,8 hPa 0,0 l/m 0,0 km/h (0 Bft) O-NO 67 1,7 C 2,6 C
18.12.2012 18:46 2,6 C 94 % 1016,9 hPa 0,0 l/m 0,0 km/h (0 Bft) O-NO 67 1,7 C 2,6 C
18.12.2012 18:51 2,6 C 94 % 1016,8 hPa 0,0 l/m 0,0 km/h (0 Bft) O-NO 67 1,7 C 2,6 C
18.12.2012 18:56 2,6 C 94 % 1017,0 hPa 0,0 l/m 0,0 km/h (0 Bft) O-NO 67 1,7 C 2,6 C
18.12.2012 19:01 2,5 C 94 % 1017,0 hPa 0,0 l/m 0,0 km/h (0 Bft) O-NO 67 1,6 C 2,5 C
18.12.2012 19:06 2,6 C 94 % 1017,0 hPa 0,0 l/m 0,0 km/h (0 Bft) O-NO 67 1,7 C 2,6 C
18.12.2012 19:11 2,5 C 94 % 1017,1 hPa 0,0 l/m 0,0 km/h (0 Bft) O-NO 67 1,6 C 2,5 C
18.12.2012 19:16 2,5 C 94 % 1017,1 hPa 0,0 l/m 0,0 km/h (0 Bft) O-NO 67 1,6 C 2,5 C
18.12.2012 19:21 2,5 C 94 % 1017,2 hPa 0,0 l/m 1,4 km/h (1 Bft) O-NO 67 1,6 C 2,5 C
18.12.2012 19:26 2,5 C 94 % 1017,2 hPa 0,0 l/m 0,0 km/h (0 Bft) O-NO 67 1,6 C 2,5 C
18.12.2012 19:31 2,5 C 94 % 1017,4 hPa 0,0 l/m 0,0 km/h (0 Bft) O-NO 67 1,6 C 2,5 C
18.12.2012 19:36 2,5 C 94 % 1017,4 hPa 0,0 l/m 0,0 km/h (0 Bft) O-NO 67 1,6 C 2,5 C
18.12.2012 19:41 2,5 C 94 % 1017,5 hPa 0,0 l/m 0,0 km/h (0 Bft) O-NO 67 1,6 C 2,5 C
18.12.2012 19:46 2,5 C 94 % 1017,5 hPa 0,0 l/m 0,0 km/h (0 Bft) O-NO 67 1,6 C 2,5 C
18.12.2012 19:51 2,5 C 94 % 1017,5 hPa 0,0 l/m 0,0 km/h (0 Bft) O-NO 67 1,6 C 2,5 C
18.12.2012 19:56 2,5 C 94 % 1017,6 hPa 0,5 l/m 0,0 km/h (0 Bft) O-NO 67 1,6 C 2,5 C
18.12.2012 20:01 2,5 C 94 % 1017,6 hPa 0,0 l/m 0,0 km/h (0 Bft) O-NO 67 1,6 C 2,5 C
18.12.2012 20:06 2,5 C 94 % 1017,6 hPa 0,0 l/m 1,8 km/h (1 Bft) O-NO 67 1,6 C 2,5 C
18.12.2012 20:11 2,5 C 94 % 1017,7 hPa 0,0 l/m 2,5 km/h (1 Bft) O-NO 67 1,6 C 2,5 C
18.12.2012 20:16 2,5 C 94 % 1017,8 hPa 0,0 l/m 0,0 km/h (0 Bft) O-NO 67 1,6 C 2,5 C
18.12.2012 20:21 2,5 C 94 % 1017,7 hPa 0,0 l/m 0,0 km/h (0 Bft) O-NO 67 1,6 C 2,5 C
18.12.2012 20:26 2,5 C 94 % 1017,8 hPa 0,0 l/m 0,0 km/h (0 Bft) O-NO 67 1,6 C 2,5 C
18.12.2012 20:31 2,5 C 95 % 1017,8 hPa 0,0 l/m 3,2 km/h (1 Bft) O-NO 67 1,8 C 2,5 C
18.12.2012 20:36 2,5 C 95 % 1018,1 hPa 0,0 l/m 0,0 km/h (0 Bft) O-NO 67 1,8 C 2,5 C
18.12.2012 20:41 2,5 C 94 % 1018,1 hPa 0,0 l/m 0,0 km/h (0 Bft) O-NO 67 1,6 C 2,5 C
18.12.2012 20:46 2,6 C 94 % 1018,1 hPa 0,0 l/m 0,0 km/h (0 Bft) O-NO 67 1,7 C 2,6 C
18.12.2012 20:51 2,6 C 95 % 1018,2 hPa 0,0 l/m 0,0 km/h (0 Bft) O-NO 67 1,9 C 2,6 C
18.12.2012 20:56 2,6 C 94 % 1018,3 hPa 0,0 l/m 0,0 km/h (0 Bft) O-NO 67 1,7 C 2,6 C
18.12.2012 21:01 2,6 C 94 % 1018,4 hPa 0,0 l/m 0,0 km/h (0 Bft) O-NO 67 1,7 C 2,6 C
18.12.2012 21:06 2,6 C 94 % 1018,5 hPa 0,0 l/m 0,0 km/h (0 Bft) O-NO 67 1,7 C 2,6 C
18.12.2012 21:11 2,6 C 95 % 1018,4 hPa 0,5 l/m 0,0 km/h (0 Bft) O-NO 67 1,9 C 2,6 C
18.12.2012 21:16 2,6 C 95 % 1018,4 hPa 0,0 l/m 0,0 km/h (0 Bft) O-NO 67 1,9 C 2,6 C
18.12.2012 21:21 2,6 C 95 % 1018,4 hPa 0,0 l/m 0,0 km/h (0 Bft) O-NO 67 1,9 C 2,6 C
18.12.2012 21:26 2,6 C 95 % 1018,4 hPa 0,0 l/m 0,0 km/h (0 Bft) O-NO 67 1,9 C 2,6 C
18.12.2012 21:31 2,6 C 94 % 1018,5 hPa 0,0 l/m 0,0 km/h (0 Bft) O-NO 67 1,7 C 2,6 C
18.12.2012 21:36 2,5 C 94 % 1018,5 hPa 0,0 l/m 0,0 km/h (0 Bft) O-NO 67 1,6 C 2,5 C
18.12.2012 21:41 2,5 C 95 % 1018,6 hPa 0,0 l/m 0,0 km/h (0 Bft) O-NO 67 1,8 C 2,5 C
18.12.2012 21:46 2,5 C 95 % 1018,6 hPa 0,0 l/m 0,0 km/h (0 Bft) O-NO 67 1,8 C 2,5 C
18.12.2012 21:51 2,5 C 95 % 1018,7 hPa 0,0 l/m 0,0 km/h (0 Bft) O-NO 67 1,8 C 2,5 C
18.12.2012 21:56 2,5 C 95 % 1018,6 hPa 0,0 l/m 0,0 km/h (0 Bft) O-NO 67 1,8 C 2,5 C
18.12.2012 22:01 2,5 C 95 % 1018,7 hPa 0,0 l/m 0,0 km/h (0 Bft) O-NO 67 1,8 C 2,5 C
18.12.2012 22:06 2,5 C 95 % 1018,8 hPa 0,0 l/m 0,0 km/h (0 Bft) O-NO 67 1,8 C 2,5 C
18.12.2012 22:11 2,4 C 95 % 1019,0 hPa 0,0 l/m 0,0 km/h (0 Bft) O-NO 67 1,7 C 2,4 C
18.12.2012 22:16 2,4 C 95 % 1018,9 hPa 0,0 l/m 0,0 km/h (0 Bft) O-NO 67 1,7 C 2,4 C
18.12.2012 22:21 2,4 C 95 % 1019,0 hPa 0,0 l/m 0,0 km/h (0 Bft) O-NO 67 1,7 C 2,4 C
18.12.2012 22:26 2,4 C 95 % 1019,1 hPa 0,0 l/m 0,0 km/h (0 Bft) O-NO 67 1,7 C 2,4 C
18.12.2012 22:31 2,4 C 95 % 1019,2 hPa 0,0 l/m 0,0 km/h (0 Bft) O-NO 67 1,7 C 2,4 C
18.12.2012 22:36 2,4 C 95 % 1019,1 hPa 0,0 l/m 0,0 km/h (0 Bft) O-NO 67 1,7 C 2,4 C
18.12.2012 22:41 2,4 C 95 % 1019,2 hPa 0,0 l/m 0,0 km/h (0 Bft) O-NO 67 1,7 C 2,4 C
18.12.2012 22:46 2,4 C 95 % 1019,2 hPa 0,0 l/m 0,0 km/h (0 Bft) O-NO 67 1,7 C 2,4 C
18.12.2012 22:51 2,4 C 95 % 1019,3 hPa 0,0 l/m 0,0 km/h (0 Bft) O-NO 67 1,7 C 2,4 C
18.12.2012 22:56 2,4 C 95 % 1019,4 hPa 0,0 l/m 0,0 km/h (0 Bft) O-NO 67 1,7 C 2,4 C
18.12.2012 23:01 2,4 C 95 % 1019,2 hPa 0,5 l/m 0,0 km/h (0 Bft) O-NO 67 1,7 C 2,4 C
18.12.2012 23:06 2,4 C 95 % 1019,4 hPa 0,0 l/m 0,0 km/h (0 Bft) O-NO 67 1,7 C 2,4 C
18.12.2012 23:11 2,3 C 95 % 1019,4 hPa 0,0 l/m 1,8 km/h (1 Bft) O-NO 67 1,6 C 2,3 C
18.12.2012 23:16 2,3 C 95 % 1019,5 hPa 0,0 l/m 1,8 km/h (1 Bft) O-NO 67 1,6 C 2,3 C
18.12.2012 23:21 2,3 C 95 % 1019,6 hPa 0,0 l/m 0,0 km/h (0 Bft) O-NO 67 1,6 C 2,3 C
18.12.2012 23:26 2,3 C 95 % 1019,7 hPa 0,0 l/m 0,0 km/h (0 Bft) NO 45 1,6 C 2,3 C
18.12.2012 23:31 2,2 C 95 % 1019,6 hPa 0,0 l/m 0,0 km/h (0 Bft) NO 45 1,5 C 2,2 C
18.12.2012 23:36 2,2 C 95 % 1019,8 hPa 0,0 l/m 0,0 km/h (0 Bft) NO 45 1,5 C 2,2 C
18.12.2012 23:41 2,2 C 95 % 1019,9 hPa 0,0 l/m 2,2 km/h (1 Bft) NO 45 1,5 C 2,2 C
18.12.2012 23:46 2,2 C 95 % 1019,9 hPa 0,0 l/m 0,0 km/h (0 Bft) O-NO 67 1,5 C 2,2 C
18.12.2012 23:51 2,2 C 95 % 1020,0 hPa 0,0 l/m 2,5 km/h (1 Bft) NO 45 1,5 C 2,2 C
18.12.2012 23:56 2,2 C 95 % 1019,8 hPa 0,0 l/m 0,0 km/h (0 Bft) NO 45 1,5 C 2,2 C
_ Min-Zeit 00:56 16:31 00:06 - 02:46 - - 00:56 01:26
Minimum _ 1,9 C 94 % 1007,9 hPa - 0,0 km/h (0 Bft) - - 1,2 C -1,0 C
_ Max-Zeit 14:21 06:46 23:51 16:06 01:26 - - 14:21 14:21
Maximum _ 3,4 C 96 % 1020,0 hPa 0,5 l/m 9,7 km/h
O-NO (2 Bft)
- - 2,7 C 3,4 C
Durchschnitt _ 2,5 C 95 % 1013,1 hPa #2,6 l/m 2,0 km/h (1 Bft) O-SO - 1,8 C 2,3 C
(c) by David Heller